Volver al catálogo

FENGYUN 1C DEB

ActivoSSO
NORAD 30199·DEBRIS·🇨🇳 China

Lanzado May 10, 1999 desde Taiyuan Satellite Launch Center

Loading…

Próximos Pases (próximas 24 horas)

TLE

ActualizadoSource: Space-Track

Época: Sep 14, 2026, 00:18 UTC

1 30199U 99025VG  26257.01256329  .00001414  00000-0  44840-3 0  9990
2 30199  98.3667 279.4056 0076783 200.8583 190.4468 14.39866636 23709

Sigue FENGYUN 1C DEB en tiempo real con AllMySat

Download on the App Store